FENGYUN 2A AKM, 25611

Orbit data source: Space-Track

FENGYUN 2A AKM, 25611 is space debris in GEO originally from a launch on Tue, 10 Jun 1997 UTC launched from the Xichang Space Center, China (XSC). Debris objects in space refer to the collection of defunct objects orbiting the Earth. Examples of debris include non-operational satellites, rocket bodies, and fragments generated from explosions, collisions, or faulty payload assembly.

Loading next visibility...
Identifier
25611, 1997-029C
Orbit
GEO
Country
Flag of CNCN / PRC
Related business
Manufacturer
China ARMT
Mission
Spacecraft
Bus & Motor
SHANXI AKM, Unknown motor
Mass
729 kg wet, ~50 kg dry
Launch date (UTC)
1997-06-10 (29 years ago)
Launch vehicle
Unknown
Launch site
Xichang Space Center, China (XSC)
Object type
Payload
Rocket body
Debris
Shape & HBR
Cyl + Cone, 0.8 m
Radar Cross Section
1.571 m², Medium (>0.1 m² and < 1m²)

Expand to show TLE details & history
Last TLE update: 2 days ago

TLE from 2 days ago
0 FENGYUN 2A AKM
1 25611U 97029C   26171.28321977 -.00000138  00000-0  00000+0 0  9990
2 25611  13.8487 353.2768 0225228  80.5630 144.3270  1.02877914 48614
Epoch: 2026-06-20T06:47Z
TLE epoch observation values (Epoch: 2026-06-20T06:47:50.188Z)
Latitude
-9.99479°
Longitude
-151.64305°
Altitude
35,840.088 km
Speed
3.044 km/s
True Right ascension
14h 35m 15s
True Declination
-9° 59' 06"
Sunlit
Object was in daylight at epoch
Visualization orbit readout
Latitude
Unknown
Longitude
Unknown
Altitude
Unknown
Speed
Unknown
Apparent Right ascension
Unknown
Apparent Declination
Unknown
Sunlit
N/A
Visualization observer readout
Local Sidereal Time
23:08:13
Azimuth
Unknown
Elevation
Unknown
Doppler factor
Unknown
Orbital elements
Apogee altitude
36,006.05 km
Perigee altitude
34,138.883 km
Semi-major axis
41,450.604 km
Eccentricity
0.02252
Inclination
13.8487°
RAAN
353.2768°
Arg. of periapsis
80.563°
True anomaly
145.79824°
Mean anomaly
144.327°
Eccentric anomaly
145.06596°
Mean motion
0.25719 °/min
Orbital period
1,399.77 mins
BSTAR
0
Loading maneuver chart data...
Computing Atmospheric mass density...
Loading historical data...
Loading historical data...
Loading historical data...
Loading historical data...
Loading historical data...
Loading historical data...
Loading historical data...
Other satellites on launch #29 in the year 1997 (1997-06-10 UTC)

Documentation

Showing up to 5 results
|